User: anonymous
Location: Albany
(35.0000°S, 118.0000°E)
Time: 20:22:35
(UTC-04:00)
Language:

Cosmos 1758 Rocket - Orbit

View from above orbital plane
View from above orbital plane
View from above satellite
View from above satellite

Ground track
Ground track

The orbit data is extracted from the following two-line orbital elements,

1 16792U 86046B   14265.05764713  .00000358  00000-0  41308-4 0  5802
2 16792 082.4825 062.2881 0023656 345.1617 147.0178 14.82622495526804
Epoch (UTC): 22 September 2014 01:23:00
Eccentricity: 0.0023656
inclination: 82.4825°
perigee height: 604 km
apogee height: 637 km
right ascension of ascending node: 62.2881°
argument of perigee: 345.1617°
revolutions per day: 14.82622495
mean anomaly at epoch: 147.0178°
orbit number at epoch: 52680

The dashed part of the orbit path shows where the satellite is in the earth's shadow,  

DLR